Simultaneous Nadir Overpasses (SNOs) Predictions

Prediction of SNOs between LANDSAT-8 and METOP-B Satellite Orbit:

Table of predicted SNOs for the next 14.0 days since TLE Epoch: 1/18/2020
Index Date (LANDSAT-8) Time (LANDSAT-8) Lat,Lon (LANDSAT-8) SZA (LANDSAT-8 ) Date (METOP-B) Time (METOP-B) Lat,Lon (METOP-B) SZA (METOP-B ) Distance(km) Time Diff (sec)
1 01/20/2020 01:26:58 81.08,-162.68 102.96 01/20/2020 01:26:19 81.08,-162.70 102.95 0.62 39
2 01/20/2020 02:16:23 -81.12, 5.66 76.95 01/20/2020 02:16:57 -81.12, 5.76 76.93 1.75 34
3 01/22/2020 21:01:12 81.09, -96.10 102.35 01/22/2020 21:00:42 81.09, -96.02 102.35 1.33 30
4 01/22/2020 21:50:38 -81.11, 71.91 77.61 01/22/2020 21:51:22 -81.11, 71.73 77.62 3.02 44
5 01/25/2020 16:35:26 81.09, -29.54 101.68 01/25/2020 16:35:06 81.09, -29.73 101.65 3.22 20
6 01/25/2020 17:24:52 -81.12, 138.48 78.28 01/25/2020 17:25:45 -81.12, 138.45 78.26 0.66 53
7 01/28/2020 12:09:39 81.10, 36.97 100.96 01/28/2020 12:09:28 81.10, 36.94 100.96 0.66 11
8 01/28/2020 12:59:05 -81.13,-154.98 78.99 01/28/2020 13:00:07 -81.13,-154.85 78.96 2.28 62
9 01/31/2020 06:55:04 -80.01, -76.15 81.69 01/31/2020 06:53:50 -80.33, -77.36 81.49 42.32 74
10 01/31/2020 07:43:53 81.10, 103.46 100.20 01/31/2020 07:43:51 81.10, 103.60 100.22 2.45 2




NCC Satellite Simultaneous Nadir Overpasses (SNOs) Prediction Service
